sat.trackr.live / text

‹ back to catalog

STARLINK-11596 [DTC]

NORAD 64321 · 2025-124E

PAYLOAD ACTIVE UNKNOWN

§ Identity

Operator
Country
US
Launch date
2025-06-10
Launch site
AFETR
Launch vehicle
Mass (kg)
RCS (m²)

Purposes: comms

External: N2YO · Heavens-Above · Gunter

§ Orbital elements

Epoch: 2026-09-20T23:08:50.309088Z

Period
91.67 min
Inclination
43.0023°
Eccentricity
0.0002546
Mean motion
15.70936572 rev/d
Perigee alt
354.5 km
Apogee alt
357.9 km
Semi-major
6,734.4 km
B*
5.2238e-4
RAAN
292.3837°
Arg perigee
276.8554°
Mean anomaly
83.2024°
Rev number
7,354

§ Raw data

STARLINK-11596 [DTC]1 64321U 25124E   26263.96447117  .00067405  00000+0  52238-3 0  99922 64321  43.0023 292.3837 0002546 276.8554  83.2024 15.70936572 73541

JSON: /api/v1/satellites/64321 · /tle

For live sub-satellite position, see the globe view (requires WebGL).

§ Visibility from observer

Set your observer location to see the next 7 days of passes ≥ 10°. The values pass through the URL so the page stays shareable.

No JS? Fill the form by hand. The geolocation button needs JavaScript.